This is the latest recevied weather packets stored in our database for station/object W6MAF. If no packets are shown the sender has not sent any weather packets the latest 10 day(s).
| Time | Temp. | Humidity | Pressure | Rain* | Wind** | Luminosity | Snow |
|---|---|---|---|---|---|---|---|
| 1777903137 | 6.11° C | 83% | - | 0 mm | 6.71 m/s, 208° | - | - |
| 1777902838 | 6.11° C | 83% | - | 0 mm | 7.6 m/s, 211° | - | - |
| 1777902541 | 6.11° C | 83% | - | 0 mm | 7.6 m/s, 218° | - | - |
| 1777902244 | 6.11° C | 84% | - | 0 mm | 8.05 m/s, 225° | - | - |
| 1777901942 | 6.11° C | 84% | - | 0 mm | 6.26 m/s, 231° | - | - |
| 1777901645 | 6.11° C | 85% | - | 0 mm | 7.15 m/s, 150° | - | - |
| 1777901379 | 6.11° C | 85% | - | 0 mm | 6.71 m/s, 224° | - | - |
| 1777901347 | 6.11° C | 85% | - | 0 mm | 6.71 m/s, 224° | - | - |
| 1777901050 | 6.11° C | 85% | - | 0 mm | 6.71 m/s, 212° | - | - |
| 1777900751 | 6.11° C | 85% | - | 0 mm | 6.26 m/s, 218° | - | - |
| 1777900496 | 6.11° C | 85% | - | 0 mm | 8.49 m/s, 207° | - | - |
| 1777900454 | 6.11° C | 85% | - | 0 mm | 8.49 m/s, 207° | - | - |
| 1777900153 | 6.11° C | 85% | - | 0 mm | 6.26 m/s, 203° | - | - |
| 1777899855 | 6.11° C | 86% | - | 0 mm | 7.15 m/s, 226° | - | - |
| 1777899557 | 6.11° C | 87% | - | 0 mm | 6.26 m/s, 203° | - | - |
| 1777899260 | 6.11° C | 88% | - | 0 mm | 6.71 m/s, 200° | - | - |
| 1777898962 | 6.11° C | 88% | - | 0 mm | 6.71 m/s, 218° | - | - |
| 1777898664 | 6.11° C | 88% | - | 0 mm | 5.81 m/s, 197° | - | - |
| 1777898364 | 6.11° C | 89% | - | 0 mm | 6.26 m/s, 207° | - | - |
| 1777898067 | 6.11° C | 90% | - | 0 mm | 6.71 m/s, 205° | - | - |
| 1777897768 | 6.11° C | 90% | - | 0 mm | 5.36 m/s, 224° | - | - |
| 1777897471 | 6.11° C | 90% | - | 0 mm | 4.92 m/s, 219° | - | - |
| 1777897174 | 6.11° C | 90% | - | 0 mm | 6.26 m/s, 205° | - | - |
| 1777897173 | 6.11° C | 90% | - | 0 mm | 6.26 m/s, 205° | - | - |
| 1777896875 | 6.11° C | 90% | - | 0 mm | 4.47 m/s, 207° | - | - |
* Rain latest hour (hover to see other rain measurements)
** Current wind speed in m/s (hover to see current wind gust speed)